Flag for Germany Weather past 2 weeks in Bitterfeld-Wolfen, Saxony-Anhalt, Germany

Now
72 °F

Sunny.


Feels Like: 75 °F
Forecast: 61 / 74 °F
Wind: 3 mph from Northeast

Location: Leipzig-Schkeuditz

Current Time: Sep 19, 2014 at 2:19:27 PM

Latest Report: Sep 19, 2014 at 1:50 PM


Visibility: 10 mi

Pressure: 29.92 "Hg

Humidity: 69%

Dew point: 61 °F

Location of Bitterfeld-WolfenLocation

Historic Weather in Bitterfeld-Wolfen — Graph

°F

Bitterfeld-Wolfen temperature yesterday

Maximum temperature yesterday: 73 °F (at 1:50 PM)
Minimum temperature yesterday: 54 °F (at 5:20 AM)
Average temperature yesterday: 64 °F

Past Weeks' High & Low Weather Summary

 TemperatureHumidityPressure
High81 °F (Sep 6, 3:20 PM)100% (Sep 5, 2:20 AM)30.15 "Hg (Sep 5, 2:20 AM)
Low50 °F (Sep 9, 6:20 AM)44% (Sep 17, 4:50 PM)29.86 "Hg (Sep 6, 3:50 PM)
Average63 °F87%30.02 "Hg
* Reported Sep 4 1:20 PM — Sep 19 1:20 PM, Bitterfeld-Wolfen, Weather by CustomWeather, © 2014

Note: Actual official high and low records may vary slightly from our data, if they occured in-between our weather recording intervals... More about our weather records

Advertising

Bitterfeld-Wolfen weather history for previous 24 hours

 ConditionsComfort  
Time TempWeatherWind HumidityBarometerVisibility
1:20 PM
Sep 19
70 °FSunny.2 mph73%29.92 "Hg10 mi
12:50 PM70 °FSunny.6 mph69%29.92 "Hg10 mi
12:20 PM70 °FSunny.6 mph69%29.92 "Hg10 mi
11:50 AM68 °FBroken clouds.6 mph73%29.92 "HgN/A
11:20 AM68 °FBroken clouds.5 mph73%29.92 "HgN/A
10:50 AM68 °FSunny.6 mph73%29.95 "Hg10 mi
10:20 AM66 °FSunny.5 mph73%29.95 "Hg10 mi
9:50 AM66 °FBroken clouds.7 mph78%29.95 "HgN/A
9:20 AM64 °FPartly sunny.6 mph83%29.95 "HgN/A
8:50 AM63 °FPartly sunny.6 mph88%29.92 "HgN/A
8:20 AM61 °FSunny.5 mph88%29.95 "Hg10 mi
7:50 AM61 °FClear.6 mph88%29.95 "Hg10 mi
7:20 AM61 °FClear.8 mph88%29.92 "Hg10 mi
6:50 AM61 °FClear.8 mph88%29.92 "Hg10 mi
6:20 AM61 °FClear.7 mph94%29.92 "Hg10 mi
5:50 AM59 °FClear.8 mph94%29.92 "Hg10 mi
5:20 AM61 °FClear.8 mph94%29.92 "Hg10 mi
4:50 AM59 °FClear.7 mph100%29.92 "Hg10 mi
4:20 AM61 °FClear.8 mph94%29.92 "Hg10 mi
3:50 AM61 °FClear.7 mph94%29.92 "Hg10 mi
3:20 AM61 °FClear.5 mph94%29.92 "Hg10 mi
2:50 AM61 °FClear.6 mph94%29.92 "Hg10 mi
2:20 AM61 °FClear.6 mph94%29.95 "Hg10 mi
1:50 AM63 °FClear.6 mph88%29.95 "Hg10 mi
1:20 AM63 °FClear.7 mph88%29.95 "Hg10 mi
12:50 AM63 °FClear.6 mph88%29.95 "Hg10 mi
12:20 AM63 °FClear.7 mph88%29.95 "Hg10 mi
11:50 PM
Sep 18
63 °FClear.8 mph88%29.95 "Hg10 mi
11:20 PM63 °FClear.7 mph88%29.95 "Hg10 mi
10:50 PM63 °FClear.5 mph83%29.95 "Hg10 mi
10:20 PM63 °FClear.8 mph83%29.95 "Hg10 mi
9:20 PM63 °FClear.8 mph88%29.95 "Hg10 mi
8:50 PM64 °FClear.8 mph78%29.95 "Hg10 mi
8:20 PM64 °FClear.6 mph78%29.95 "Hg10 mi
7:50 PM66 °FSunny.6 mph78%29.95 "Hg10 mi
7:20 PM66 °FSunny.5 mph78%29.95 "Hg10 mi
6:50 PM68 °FSunny.6 mph73%29.95 "Hg10 mi
6:20 PM72 °FSunny.7 mph61%29.92 "Hg10 mi
5:50 PM72 °FSunny.8 mph61%29.92 "Hg10 mi
5:20 PM73 °FScattered clouds.7 mph57%29.92 "HgN/A
4:50 PM73 °FScattered clouds.7 mph57%29.92 "HgN/A
4:20 PM73 °FScattered clouds.8 mph57%29.92 "HgN/A
3:50 PM73 °FScattered clouds.8 mph61%29.92 "HgN/A
3:20 PM73 °FScattered clouds.8 mph57%29.92 "HgN/A
2:50 PM73 °FScattered clouds.8 mph61%29.92 "HgN/A
2:20 PM73 °FPassing clouds.7 mph61%29.92 "HgN/A
Weather by CustomWeather, © 2014

See weather overviewHow to use our weather pages